STARLINK-37087

Last updated on Sun Apr 12 2026 00:02:07 GMT+0000 (Coordinated Universal Time)

1 68250U 26054U 26101.40520337 .00158461 00000+0 11397-2 0 9999 2 68250 53.1564 149.0502 0014071 59.7516 300.4894 15.72502417 3942
UTC large
Height (km)
Speed (km/s)
/
Latitude / Longitude
Inclination (degrees)
Orbital Period (minutes)
Azimuth
Elevation
Range (km)
Doppler Factor

Next 0 passes for location: London (51.5072 / 0.1276)

Sorry there are no passes over London.
STARLINK-37087